| time (UTC) | temp C | wind direction | speed KPH | gust KPH | rain 1hr cm | rain 24hr cm | rain mn cm | humidity % | barometer mb |
| 20260902202320 | 12 | 224 | 9.7 | 29.0 | 0.03 | 0.05 | 0.05 | 75 | 1006.6 |
| 20260902201821 | 12 | 177 | 9.7 | 29.0 | 0.03 | 0.05 | 0.05 | 76 | 1006.6 |
| 20260902201321 | 12 | 144 | 8.0 | 22.5 | 0.05 | 0.05 | 0.05 | 76 | 1006.6 |
| 20260902200821 | 12 | 160 | 9.7 | 22.5 | 0.05 | 0.05 | 0.05 | 77 | 1006.6 |
| 20260902200318 | 12 | 185 | 9.7 | 22.5 | 0.05 | 0.05 | 0.05 | 77 | 1006.7 |
| 20260902195838 | 12 | 191 | 6.4 | 22.5 | 0.05 | 0.05 | 0.05 | 78 | 1006.5 |
| 20260902195831 | 12 | 196 | 8.0 | 20.9 | 0.05 | 0.05 | 0.05 | 77 | 1006.6 |
| 20260902195034 | 12 | 171 | 6.4 | 22.5 | 0.05 | 0.05 | 0.05 | 80 | 1006.7 |
| 20260902194300 | 12 | 189 | 8.0 | 22.5 | 0.05 | 0.05 | 0.05 | 79 | 1006.7 |
| 20260902193754 | 12 | 211 | 8.0 | 22.5 | 0.05 | 0.05 | 0.05 | 81 | 1006.8 |
| 20260902193248 | 12 | 220 | 8.0 | 22.5 | 0.05 | 0.05 | 0.05 | 81 | 1006.7 |
| 20260902192742 | 12 | 178 | 8.0 | 20.9 | 0.03 | 0.03 | 0.05 | 80 | 1006.7 |
| 20260902192236 | 13 | 195 | 8.0 | 20.9 | 0.03 | 0.03 | 0.03 | 78 | 1006.7 |
| 20260902191732 | 13 | 142 | 6.4 | 20.9 | 0.03 | 0.03 | 0.03 | 77 | 1006.7 |
| 20260902191223 | 13 | 159 | 8.0 | 17.7 | 0.00 | 0.00 | 0.00 | 74 | 1006.8 |
| 20260902190718 | 13 | 181 | 11.3 | 22.5 | 0.00 | 0.00 | 0.00 | 70 | 1006.7 |
| 20260902190457 | 14 | 213 | 8.0 | 22.5 | 0.00 | 0.00 | 0.00 | 69 | 1006.5 |
| 20260902185936 | 14 | 164 | 6.4 | 20.9 | 0.00 | 0.00 | 0.00 | 70 | 1006.6 |
| 20260902185713 | 14 | 164 | 6.4 | 20.9 | 0.00 | 0.00 | 0.00 | 70 | 1006.6 |
| 20260902185200 | 14 | 198 | 6.4 | 20.9 | 0.00 | 0.00 | 0.00 | 66 | 1006.6 |
| 20260902184654 | 15 | 211 | 4.8 | 17.7 | 0.00 | 0.00 | 0.00 | 65 | 1006.5 |
| 20260902184148 | 15 | 188 | 4.8 | 17.7 | 0.00 | 0.00 | 0.00 | 63 | 1006.6 |
| 20260902183931 | 15 | 199 | 6.4 | 17.7 | 0.00 | 0.00 | 0.00 | 59 | 1006.5 |
| 20260902183136 | 16 | 148 | 6.4 | 20.9 | 0.00 | 0.00 | 0.00 | 57 | 1006.4 |
| 20260902182630 | 16 | 138 | 6.4 | 19.3 | 0.00 | 0.00 | 0.00 | 54 | 1006.4 |
| 20260902182418 | 16 | 176 | 6.4 | 17.7 | 0.00 | 0.00 | 0.00 | 54 | 1006.2 |
| 20260902182413 | 16 | 188 | 6.4 | 16.1 | 0.00 | 0.00 | 0.00 | 55 | 1006.4 |
| 20260902181356 | 15 | 140 | 6.4 | 19.3 | 0.00 | 0.00 | 0.00 | 55 | 1006.2 |
| 20260902180824 | 15 | 180 | 6.4 | 19.3 | 0.00 | 0.00 | 0.00 | 56 | 1006.2 |
| 20260902180609 | 15 | 180 | 6.4 | 19.3 | 0.00 | 0.00 | 0.00 | 56 | 1006.2 |
| 20260902180100 | 15 | 117 | 6.4 | 14.5 | 0.00 | 0.00 | 0.00 | 56 | 1006.4 |
| 20260902175554 | 15 | 186 | 8.0 | 20.9 | 0.00 | 0.00 | 0.00 | 57 | 1006.2 |
| 20260902175048 | 15 | 188 | 8.0 | 20.9 | 0.00 | 0.00 | 0.00 | 56 | 1006.4 |
| 20260902174543 | 15 | 144 | 8.0 | 20.9 | 0.00 | 0.00 | 0.00 | 56 | 1006.4 |
| 20260902174035 | 15 | 147 | 8.0 | 20.9 | 0.00 | 0.00 | 0.00 | 56 | 1006.4 |
| 20260902173530 | 15 | 134 | 8.0 | 27.4 | 0.00 | 0.00 | 0.00 | 56 | 1006.2 |
| 20260902173024 | 15 | 130 | 8.0 | 27.4 | 0.00 | 0.00 | 0.00 | 57 | 1006.4 |
| 20260902172519 | 16 | 186 | 8.0 | 20.9 | 0.00 | 0.00 | 0.00 | 57 | 1006.4 |
| 20260902172016 | 16 | 200 | 8.0 | 24.1 | 0.00 | 0.00 | 0.00 | 56 | 1006.4 |
| 20260902171510 | 16 | 163 | 9.7 | 24.1 | 0.00 | 0.00 | 0.00 | 56 | 1006.4 |
| 20260902171001 | 16 | 150 | 9.7 | 24.1 | 0.00 | 0.00 | 0.00 | 56 | 1006.4 |
| 20260902170454 | 16 | 212 | 8.0 | 19.3 | 0.00 | 0.00 | 0.00 | 57 | 1006.2 |
| 20260902165948 | 16 | 205 | 9.7 | 20.9 | 0.00 | 0.00 | 0.00 | 57 | 1006.2 |
| 20260902165442 | 16 | 185 | 8.0 | 22.5 | 0.00 | 0.00 | 0.00 | 57 | 1006.2 |
| 20260902164936 | 16 | 113 | 8.0 | 20.9 | 0.00 | 0.00 | 0.00 | 57 | 1006.4 |
| 20260902164718 | 16 | 150 | 9.7 | 20.9 | 0.00 | 0.00 | 0.00 | 58 | 1006.4 |
| 20260902164015 | 16 | 240 | 9.7 | 20.9 | 0.00 | 0.00 | 0.00 | 59 | 1006.4 |
| 20260902163959 | 16 | 182 | 9.7 | 20.9 | 0.00 | 0.00 | 0.00 | 58 | 1006.4 |
| 20260902162945 | 16 | 197 | 9.7 | 24.1 | 0.00 | 0.00 | 0.00 | 59 | 1006.6 |
| 20260902162445 | 16 | 250 | 9.7 | 24.1 | 0.00 | 0.00 | 0.00 | 59 | 1006.6 |
| 20260902161943 | 16 | 198 | 8.0 | 22.5 | 0.00 | 0.00 | 0.00 | 59 | 1006.6 |
| 20260902161714 | 16 | 193 | 8.0 | 22.5 | 0.00 | 0.00 | 0.00 | 58 | 1006.6 |
| 20260902160943 | 16 | 219 | 8.0 | 19.3 | 0.00 | 0.00 | 0.00 | 59 | 1006.5 |
| 20260902160442 | 16 | 189 | 8.0 | 17.7 | 0.00 | 0.00 | 0.00 | 59 | 1006.6 |
| 20260902160216 | 16 | 178 | 6.4 | 17.7 | 0.00 | 0.00 | 0.00 | 60 | 1006.7 |
| 20260902155439 | 16 | 174 | 6.4 | 17.7 | 0.00 | 0.00 | 0.00 | 60 | 1006.7 |
| 20260902154936 | 15 | 190 | 6.4 | 19.3 | 0.00 | 0.00 | 0.00 | 61 | 1006.7 |
| 20260902154437 | 15 | 182 | 6.4 | 19.3 | 0.00 | 0.00 | 0.00 | 61 | 1006.8 |
| 20260902153936 | 15 | 188 | 6.4 | 19.3 | 0.00 | 0.00 | 0.00 | 63 | 1006.8 |
| 20260902153434 | 15 | 186 | 6.4 | 19.3 | 0.00 | 0.00 | 0.00 | 63 | 1006.9 |
| 20260902152935 | 14 | 173 | 4.8 | 16.1 | 0.00 | 0.00 | 0.00 | 67 | 1006.9 |
| 20260902152433 | 13 | 174 | 3.2 | 12.9 | 0.00 | 0.00 | 0.00 | 70 | 1007.0 |
| 20260902151932 | 13 | 148 | 1.6 | 11.3 | 0.00 | 0.00 | 0.00 | 72 | 1007.0 |
| 20260902151432 | 12 | 145 | 0.0 | 1.6 | 0.00 | 0.00 | 0.00 | 73 | 1007.2 |
| 20260902150932 | 12 | 145 | 0.0 | 6.4 | 0.00 | 0.00 | 0.00 | 74 | 1007.3 |
| 20260902150431 | 12 | 145 | 1.6 | 6.4 | 0.00 | 0.00 | 0.00 | 75 | 1007.2 |
| 20260902145932 | 12 | 134 | 0.0 | 4.8 | 0.00 | 0.00 | 0.00 | 75 | 1007.2 |
| 20260902145429 | 11 | 138 | 0.0 | 1.6 | 0.00 | 0.00 | 0.00 | 76 | 1007.3 |
| 20260902144929 | 11 | 138 | 0.0 | 1.6 | 0.00 | 0.00 | 0.00 | 77 | 1007.3 |
| 20260902144431 | 11 | 138 | 0.0 | 1.6 | 0.00 | 0.00 | 0.00 | 78 | 1007.3 |
| 20260902143929 | 11 | 138 | 0.0 | 1.6 | 0.00 | 0.00 | 0.00 | 78 | 1007.3 |
| 20260902143431 | 11 | 138 | 0.0 | 3.2 | 0.00 | 0.00 | 0.00 | 79 | 1007.4 |
| 20260902142931 | 11 | 138 | 0.0 | 3.2 | 0.00 | 0.00 | 0.00 | 79 | 1007.4 |
| 20260902142430 | 11 | 138 | 0.0 | 0.0 | 0.00 | 0.00 | 0.00 | 80 | 1007.4 |
| 20260902141939 | 11 | 138 | 0.0 | 0.0 | 0.00 | 0.00 | 0.00 | 80 | 1007.4 |
| 20260902141721 | 11 | 138 | 0.0 | 0.0 | 0.00 | 0.00 | 0.00 | 79 | 1007.7 |
| 20260902140928 | 11 | 138 | 0.0 | 1.6 | 0.00 | 0.00 | 0.00 | 79 | 1007.7 |
| 20260902140427 | 10 | 138 | 0.0 | 3.2 | 0.00 | 0.00 | 0.00 | 80 | 1007.7 |
| 20260902135926 | 10 | 138 | 0.0 | 4.8 | 0.00 | 0.00 | 0.00 | 80 | 1007.5 |
| 20260902135426 | 10 | 138 | 0.0 | 4.8 | 0.00 | 0.00 | 0.00 | 80 | 1007.5 |
| 20260902135204 | 10 | 138 | 1.6 | 6.4 | 0.00 | 0.00 | 0.00 | 80 | 1007.5 |
| 20260902134421 | 10 | 139 | 1.6 | 6.4 | 0.00 | 0.00 | 0.00 | 80 | 1007.7 |
| 20260902133921 | 10 | 136 | 1.6 | 6.4 | 0.00 | 0.00 | 0.00 | 80 | 1007.5 |
| 20260902133415 | 10 | 140 | 1.6 | 6.4 | 0.00 | 0.00 | 0.00 | 80 | 1007.7 |
| 20260902132910 | 10 | 138 | 3.2 | 6.4 | 0.00 | 0.00 | 0.00 | 80 | 1007.8 |
| 20260902132403 | 10 | 144 | 1.6 | 6.4 | 0.00 | 0.00 | 0.00 | 81 | 1007.5 |
| 20260902131908 | 10 | 146 | 1.6 | 4.8 | 0.00 | 0.00 | 0.00 | 80 | 1007.8 |
| 20260902130844 | 10 | 149 | 0.0 | 4.8 | 0.00 | 0.00 | 0.00 | 80 | 1007.9 |
| 20260902130339 | 10 | 148 | 1.6 | 4.8 | 0.00 | 0.00 | 0.00 | 80 | 1007.9 |
| 20260902125833 | 10 | 148 | 1.6 | 4.8 | 0.00 | 0.00 | 0.00 | 79 | 1008.0 |
| 20260902125327 | 10 | 149 | 1.6 | 6.4 | 0.00 | 0.00 | 0.00 | 79 | 1008.1 |
| 20260902124821 | 10 | 150 | 1.6 | 6.4 | 0.00 | 0.00 | 0.00 | 79 | 1008.1 |
| 20260902124315 | 11 | 157 | 1.6 | 4.8 | 0.00 | 0.00 | 0.00 | 79 | 1008.1 |
| 20260902123809 | 11 | 157 | 1.6 | 4.8 | 0.00 | 0.00 | 0.00 | 79 | 1008.1 |
| 20260902123306 | 11 | 157 | 0.0 | 3.2 | 0.00 | 0.00 | 0.00 | 79 | 1008.1 |
| 20260902122758 | 11 | 157 | 0.0 | 0.0 | 0.00 | 0.00 | 0.00 | 80 | 1008.2 |
| 20260902122252 | 10 | 157 | 0.0 | 0.0 | 0.00 | 0.00 | 0.00 | 80 | 1008.1 |
| 20260902121745 | 10 | 157 | 0.0 | 1.6 | 0.00 | 0.00 | 0.00 | 80 | 1008.1 |
| 20260902121240 | 10 | 157 | 0.0 | 1.6 | 0.00 | 0.00 | 0.00 | 80 | 1008.2 |
| 20260902120740 | 10 | 158 | 0.0 | 1.6 | 0.00 | 0.00 | 0.00 | 80 | 1008.2 |
| 20260902120240 | 10 | 158 | 0.0 | 1.6 | 0.00 | 0.00 | 0.00 | 81 | 1008.2 |
| 20260902115740 | 10 | 158 | 0.0 | 3.2 | 0.00 | 0.00 | 0.00 | 81 | 1008.4 |
| 20260902115246 | 10 | 158 | 0.0 | 3.2 | 0.00 | 0.00 | 0.00 | 81 | 1008.5 |
| 20260902114736 | 10 | 158 | 0.0 | 4.8 | 0.00 | 0.00 | 0.00 | 82 | 1008.5 |
| 20260902114235 | 10 | 153 | 0.0 | 4.8 | 0.00 | 0.00 | 0.00 | 82 | 1008.5 |
| 20260902113735 | 10 | 153 | 0.0 | 3.2 | 0.00 | 0.00 | 0.00 | 82 | 1008.5 |
| 20260902113235 | 10 | 147 | 0.0 | 3.2 | 0.00 | 0.00 | 0.00 | 81 | 1008.5 |
| 20260902112735 | 10 | 146 | 1.6 | 3.2 | 0.00 | 0.00 | 0.00 | 81 | 1008.4 |
| 20260902112237 | 10 | 146 | 1.6 | 3.2 | 0.00 | 0.00 | 0.00 | 81 | 1008.3 |
| 20260902111736 | 10 | 142 | 1.6 | 4.8 | 0.00 | 0.00 | 0.00 | 80 | 1008.3 |
| 20260902111236 | 10 | 142 | 3.2 | 6.4 | 0.00 | 0.00 | 0.00 | 80 | 1008.4 |
| 20260902110734 | 10 | 142 | 3.2 | 8.0 | 0.00 | 0.00 | 0.00 | 79 | 1008.4 |
| 20260902110236 | 10 | 141 | 1.6 | 8.0 | 0.00 | 0.00 | 0.00 | 80 | 1008.4 |
| 20260902105744 | 10 | 144 | 1.6 | 4.8 | 0.00 | 0.00 | 0.00 | 80 | 1008.5 |
| 20260902105520 | 10 | 146 | 1.6 | 8.0 | 0.00 | 0.00 | 0.00 | 79 | 1008.5 |
| 20260902104741 | 10 | 143 | 1.6 | 8.0 | 0.00 | 0.00 | 0.00 | 78 | 1008.5 |
| 20260902104243 | 10 | 161 | 1.6 | 6.4 | 0.00 | 0.00 | 0.00 | 78 | 1008.7 |
| 20260902103733 | 10 | 174 | 1.6 | 6.4 | 0.00 | 0.00 | 0.00 | 77 | 1008.6 |
| 20260902103503 | 11 | 176 | 1.6 | 6.4 | 0.00 | 0.00 | 0.00 | 76 | 1008.6 |
| 20260902102726 | 11 | 152 | 3.2 | 8.0 | 0.00 | 0.00 | 0.00 | 76 | 1008.6 |
| 20260902102225 | 11 | 188 | 3.2 | 8.0 | 0.00 | 0.00 | 0.00 | 77 | 1008.7 |
| 20260902101725 | 11 | 198 | 4.8 | 9.7 | 0.00 | 0.00 | 0.00 | 77 | 1008.6 |
| 20260902101224 | 11 | 214 | 4.8 | 9.7 | 0.00 | 0.00 | 0.00 | 78 | 1008.6 |
| 20260902100725 | 11 | 213 | 4.8 | 8.0 | 0.00 | 0.00 | 0.00 | 78 | 1008.6 |
| 20260902100225 | 10 | 205 | 4.8 | 9.7 | 0.00 | 0.00 | 0.00 | 78 | 1008.6 |
| 20260902095725 | 10 | 196 | 1.6 | 9.7 | 0.00 | 0.00 | 0.00 | 78 | 1008.5 |
| 20260902095227 | 11 | 229 | 1.6 | 6.4 | 0.00 | 0.00 | 0.00 | 78 | 1008.4 |
| 20260902094725 | 11 | 250 | 1.6 | 4.8 | 0.00 | 0.00 | 0.00 | 78 | 1008.5 |
| 20260902094221 | 11 | 254 | 3.2 | 4.8 | 0.00 | 0.00 | 0.00 | 78 | 1008.4 |
| 20260902093720 | 11 | 257 | 1.6 | 4.8 | 0.00 | 0.00 | 0.00 | 78 | 1008.4 |
| 20260902093221 | 11 | 252 | 1.6 | 4.8 | 0.00 | 0.00 | 0.00 | 78 | 1008.4 |
| 20260902092952 | 11 | 254 | 3.2 | 6.4 | 0.00 | 0.00 | 0.00 | 78 | 1008.6 |
| 20260902092221 | 11 | 256 | 3.2 | 6.4 | 0.00 | 0.00 | 0.00 | 78 | 1008.6 |
| 20260902091721 | 11 | 262 | 1.6 | 6.4 | 0.00 | 0.00 | 0.00 | 77 | 1008.6 |
| 20260902091221 | 11 | 260 | 1.6 | 6.4 | 0.00 | 0.00 | 0.00 | 77 | 1008.7 |
| 20260902090721 | 11 | 264 | 0.0 | 4.8 | 0.00 | 0.00 | 0.00 | 77 | 1008.9 |
| 20260902090447 | 11 | 280 | 0.0 | 3.2 | 0.00 | 0.00 | 0.00 | 76 | 1009.0 |
| 20260902085714 | 11 | 280 | 0.0 | 3.2 | 0.00 | 0.00 | 0.00 | 76 | 1009.1 |
| 20260902085209 | 11 | 282 | 0.0 | 3.2 | 0.00 | 0.00 | 0.00 | 76 | 1009.1 |
| 20260902084937 | 11 | 282 | 0.0 | 4.8 | 0.00 | 0.00 | 0.00 | 76 | 1009.0 |
| 20260902084156 | 11 | 284 | 0.0 | 4.8 | 0.00 | 0.00 | 0.00 | 76 | 1009.0 |
| 20260902083650 | 11 | 298 | 0.0 | 3.2 | 0.00 | 0.00 | 0.00 | 75 | 1008.9 |
| 20260902083414 | 11 | 298 | 0.0 | 4.8 | 0.00 | 0.00 | 0.00 | 75 | 1008.7 |
| 20260902082920 | 11 | 279 | 0.0 | 3.2 | 0.00 | 0.00 | 0.00 | 75 | 1008.7 |
| 20260902082915 | 11 | 298 | 0.0 | 4.8 | 0.00 | 0.00 | 0.00 | 76 | 1008.9 |
| 20260902081856 | 11 | 279 | 0.0 | 4.8 | 0.00 | 0.00 | 0.00 | 76 | 1008.6 |
| 20260902081119 | 11 | 280 | 0.0 | 4.8 | 0.00 | 0.00 | 0.00 | 75 | 1008.6 |
| 20260902080614 | 11 | 321 | 0.0 | 3.2 | 0.00 | 0.00 | 0.00 | 75 | 1008.6 |
| 20260902080108 | 12 | 326 | 0.0 | 0.0 | 0.00 | 0.00 | 0.00 | 74 | 1008.6 |
| 20260902075609 | 12 | 326 | 0.0 | 1.6 | 0.00 | 0.00 | 0.00 | 73 | 1008.5 |
| 20260902075057 | 12 | 326 | 0.0 | 3.2 | 0.00 | 0.00 | 0.00 | 73 | 1008.6 |
| 20260902074551 | 12 | 326 | 1.6 | 8.0 | 0.00 | 0.00 | 0.00 | 73 | 1008.5 |
| 20260902074044 | 12 | 326 | 3.2 | 11.3 | 0.00 | 0.00 | 0.00 | 73 | 1008.5 |
| 20260902073816 | 12 | 336 | 4.8 | 14.5 | 0.00 | 0.00 | 0.00 | 73 | 1008.4 |
| 20260902073032 | 12 | 320 | 6.4 | 14.5 | 0.00 | 0.00 | 0.00 | 73 | 1008.4 |
| 20260902072531 | 12 | 307 | 6.4 | 12.9 | 0.00 | 0.00 | 0.00 | 72 | 1008.4 |
| 20260902072031 | 13 | 331 | 6.4 | 12.9 | 0.00 | 0.00 | 0.00 | 72 | 1008.4 |
| 20260902071811 | 13 | 299 | 6.4 | 16.1 | 0.00 | 0.00 | 0.00 | 72 | 1008.4 |
| 20260902071029 | 13 | 296 | 8.0 | 16.1 | 0.00 | 0.00 | 0.00 | 72 | 1008.5 |
| 20260902070529 | 13 | 306 | 6.4 | 16.1 | 0.00 | 0.00 | 0.00 | 72 | 1008.5 |
| 20260902070028 | 13 | 323 | 6.4 | 12.9 | 0.00 | 0.00 | 0.00 | 72 | 1008.5 |
| 20260902065537 | 13 | 265 | 6.4 | 14.5 | 0.00 | 0.00 | 0.00 | 71 | 1008.6 |
| 20260902065300 | 13 | 264 | 6.4 | 14.5 | 0.00 | 0.00 | 0.00 | 71 | 1008.6 |
| 20260902064527 | 13 | 258 | 6.4 | 14.5 | 0.00 | 0.00 | 0.00 | 71 | 1008.6 |
| 20260902064257 | 13 | 300 | 6.4 | 17.7 | 0.00 | 0.00 | 0.00 | 71 | 1008.6 |
| 20260902063527 | 13 | 279 | 6.4 | 17.7 | 0.00 | 0.00 | 0.00 | 70 | 1008.7 |
| 20260902063029 | 13 | 250 | 8.0 | 16.1 | 0.00 | 0.00 | 0.00 | 70 | 1008.7 |
| 20260902062758 | 13 | 261 | 8.0 | 16.1 | 0.00 | 0.00 | 0.00 | 69 | 1008.7 |
| 20260902062027 | 13 | 288 | 6.4 | 16.1 | 0.00 | 0.00 | 0.00 | 69 | 1008.7 |
| 20260902061526 | 13 | 290 | 6.4 | 14.5 | 0.00 | 0.00 | 0.00 | 68 | 1008.7 |
| 20260902061026 | 13 | 294 | 6.4 | 14.5 | 0.00 | 0.00 | 0.00 | 68 | 1008.7 |
| 20260902060810 | 13 | 290 | 8.0 | 16.1 | 0.00 | 0.00 | 0.00 | 67 | 1008.7 |
| 20260902060035 | 14 | 285 | 6.4 | 16.1 | 0.00 | 0.00 | 0.00 | 67 | 1008.7 |
| 20260902055526 | 14 | 279 | 4.8 | 11.3 | 0.00 | 0.00 | 0.00 | 66 | 1008.9 |
| 20260902055023 | 14 | 296 | 6.4 | 12.9 | 0.00 | 0.00 | 0.00 | 66 | 1008.9 |
| 20260902054519 | 14 | 298 | 6.4 | 12.9 | 0.00 | 0.00 | 0.00 | 66 | 1009.0 |
| 20260902054011 | 14 | 274 | 8.0 | 19.3 | 0.00 | 0.00 | 0.00 | 65 | 1009.0 |
| 20260902053503 | 14 | 306 | 8.0 | 19.3 | 0.00 | 0.00 | 0.00 | 65 | 1008.9 |
| 20260902053001 | 14 | 294 | 6.4 | 14.5 | 0.00 | 0.00 | 0.00 | 64 | 1009.0 |
| 20260902052453 | 14 | 294 | 6.4 | 14.5 | 0.00 | 0.00 | 0.00 | 64 | 1008.9 |
| 20260902051948 | 14 | 293 | 6.4 | 14.5 | 0.00 | 0.00 | 0.00 | 63 | 1008.7 |
| 20260902051440 | 15 | 317 | 6.4 | 14.5 | 0.00 | 0.00 | 0.00 | 63 | 1008.7 |
| 20260902050934 | 15 | 327 | 6.4 | 14.5 | 0.00 | 0.00 | 0.00 | 63 | 1008.6 |
| 20260902050431 | 15 | 288 | 6.4 | 14.5 | 0.00 | 0.00 | 0.00 | 63 | 1008.6 |
| 20260902045922 | 15 | 277 | 4.8 | 12.9 | 0.00 | 0.00 | 0.00 | 62 | 1008.6 |
| 20260902045423 | 15 | 287 | 4.8 | 12.9 | 0.00 | 0.00 | 0.00 | 62 | 1008.6 |
| 20260902045153 | 15 | 293 | 3.2 | 11.3 | 0.00 | 0.00 | 0.00 | 62 | 1008.5 |
| 20260902044418 | 15 | 290 | 4.8 | 11.3 | 0.00 | 0.00 | 0.00 | 62 | 1008.5 |
| 20260902043928 | 15 | 314 | 4.8 | 16.1 | 0.00 | 0.00 | 0.00 | 61 | 1008.4 |
| 20260902043418 | 15 | 305 | 6.4 | 16.1 | 0.00 | 0.00 | 0.00 | 61 | 1008.4 |
| 20260902042918 | 15 | 296 | 6.4 | 14.5 | 0.00 | 0.00 | 0.00 | 62 | 1008.3 |
| 20260902042417 | 15 | 316 | 6.4 | 16.1 | 0.00 | 0.00 | 0.00 | 62 | 1008.3 |
| 20260902042150 | 15 | 294 | 6.4 | 16.1 | 0.00 | 0.00 | 0.00 | 62 | 1008.2 |
| 20260902041417 | 15 | 329 | 6.4 | 16.1 | 0.00 | 0.00 | 0.00 | 62 | 1008.2 |
| 20260902040918 | 15 | 331 | 8.0 | 17.7 | 0.00 | 0.00 | 0.00 | 62 | 1008.1 |
| 20260902040418 | 15 | 300 | 6.4 | 17.7 | 0.00 | 0.00 | 0.00 | 61 | 1008.0 |
| 20260902035918 | 15 | 279 | 8.0 | 16.1 | 0.00 | 0.00 | 0.00 | 61 | 1007.9 |
| 20260902035418 | 15 | 300 | 9.7 | 22.5 | 0.00 | 0.00 | 0.00 | 61 | 1007.8 |
| 20260902034916 | 15 | 283 | 8.0 | 22.5 | 0.00 | 0.00 | 0.00 | 61 | 1007.7 |
| 20260902034416 | 15 | 233 | 8.0 | 16.1 | 0.00 | 0.00 | 0.00 | 61 | 1007.7 |
| 20260902033916 | 15 | 284 | 9.7 | 19.3 | 0.00 | 0.00 | 0.00 | 61 | 1007.3 |
| 20260902033416 | 15 | 319 | 8.0 | 20.9 | 0.00 | 0.00 | 0.00 | 61 | 1007.5 |
| 20260902032916 | 16 | 244 | 6.4 | 20.9 | 0.00 | 0.00 | 0.00 | 61 | 1007.3 |
| 20260902032415 | 16 | 297 | 6.4 | 27.4 | 0.00 | 0.00 | 0.00 | 61 | 1007.3 |
| 20260902032204 | 16 | 348 | 11.3 | 27.4 | 0.00 | 0.00 | 0.00 | 60 | 1007.0 |
| 20260902032200 | 16 | 319 | 9.7 | 27.4 | 0.00 | 0.00 | 0.00 | 61 | 1007.2 |
| 20260902031157 | 16 | 277 | 11.3 | 27.4 | 0.00 | 0.00 | 0.00 | 60 | 1007.0 |
| 20260902030652 | 16 | 269 | 8.0 | 27.4 | 0.00 | 0.00 | 0.00 | 59 | 1006.8 |
| 20260902030154 | 16 | 332 | 11.3 | 27.4 | 0.00 | 0.00 | 0.00 | 58 | 1006.7 |
| 20260902025414 | 16 | 298 | 12.9 | 27.4 | 0.00 | 0.00 | 0.00 | 57 | 1006.7 |
| 20260902024916 | 17 | 275 | 11.3 | 25.7 | 0.00 | 0.00 | 0.00 | 57 | 1006.7 |
| 20260902024655 | 17 | 260 | 11.3 | 25.7 | 0.00 | 0.00 | 0.00 | 56 | 1006.6 |
| 20260902023922 | 17 | 286 | 12.9 | 25.7 | 0.00 | 0.00 | 0.00 | 55 | 1006.5 |
| 20260902023424 | 17 | 259 | 12.9 | 30.6 | 0.00 | 0.00 | 0.00 | 55 | 1006.4 |
| 20260902022922 | 17 | 303 | 11.3 | 30.6 | 0.00 | 0.00 | 0.00 | 54 | 1006.5 |
| 20260902022421 | 17 | 275 | 11.3 | 25.7 | 0.00 | 0.00 | 0.00 | 53 | 1006.4 |
| 20260902021917 | 17 | 304 | 12.9 | 27.4 | 0.00 | 0.00 | 0.00 | 52 | 1006.4 |
| 20260902021417 | 18 | 240 | 12.9 | 27.4 | 0.00 | 0.00 | 0.00 | 52 | 1006.4 |
| 20260902020913 | 18 | 295 | 11.3 | 24.1 | 0.00 | 0.00 | 0.00 | 51 | 1006.4 |
| 20260902020409 | 18 | 260 | 11.3 | 24.1 | 0.00 | 0.00 | 0.00 | 51 | 1006.4 |
| 20260902015900 | 18 | 269 | 11.3 | 27.4 | 0.00 | 0.00 | 0.00 | 50 | 1006.4 |
| 20260902015355 | 18 | 261 | 9.7 | 27.4 | 0.00 | 0.00 | 0.00 | 50 | 1006.4 |
| 20260902014848 | 18 | 333 | 11.3 | 24.1 | 0.00 | 0.00 | 0.00 | 51 | 1006.2 |
| 20260902014343 | 18 | 269 | 12.9 | 25.7 | 0.00 | 0.00 | 0.00 | 51 | 1006.4 |
| 20260902013838 | 18 | 269 | 16.1 | 29.0 | 0.00 | 0.00 | 0.00 | 51 | 1006.4 |
| 20260902013331 | 19 | 275 | 14.5 | 33.8 | 0.00 | 0.00 | 0.00 | 50 | 1006.2 |
| 20260902012825 | 19 | 243 | 11.3 | 29.0 | 0.00 | 0.00 | 0.00 | 50 | 1006.1 |
| 20260902012319 | 19 | 298 | 9.7 | 27.4 | 0.00 | 0.00 | 0.00 | 50 | 1006.0 |
| 20260902012044 | 19 | 234 | 11.3 | 22.5 | 0.00 | 0.00 | 0.00 | 51 | 1005.9 |
| 20260902011308 | 19 | 306 | 11.3 | 22.5 | 0.00 | 0.00 | 0.00 | 51 | 1005.9 |
| 20260902010802 | 19 | 280 | 11.3 | 30.6 | 0.00 | 0.00 | 0.00 | 51 | 1005.8 |
| 20260902010531 | 19 | 302 | 11.3 | 30.6 | 0.00 | 0.00 | 0.00 | 50 | 1005.7 |
| 20260902005749 | 20 | 309 | 14.5 | 37.0 | 0.00 | 0.00 | 0.00 | 49 | 1005.7 |
| 20260902005244 | 20 | 278 | 17.7 | 37.0 | 0.00 | 0.00 | 0.00 | 47 | 1005.5 |
| 20260902004741 | 20 | 313 | 19.3 | 35.4 | 0.00 | 0.00 | 0.00 | 47 | 1005.7 |
| 20260902004243 | 20 | 300 | 19.3 | 35.4 | 0.00 | 0.00 | 0.00 | 46 | 1005.7 |
| 20260902003741 | 20 | 295 | 16.1 | 35.4 | 0.00 | 0.00 | 0.00 | 45 | 1005.7 |
| 20260902003242 | 20 | 277 | 16.1 | 32.2 | 0.00 | 0.00 | 0.00 | 44 | 1005.7 |
| 20260902002742 | 20 | 332 | 16.1 | 27.4 | 0.00 | 0.00 | 0.00 | 44 | 1005.7 |
| 20260902002242 | 21 | 322 | 14.5 | 30.6 | 0.00 | 0.00 | 0.00 | 43 | 1005.6 |
| 20260902001747 | 21 | 284 | 17.7 | 33.8 | 0.00 | 0.00 | 0.00 | 42 | 1005.5 |
| 20260902001241 | 21 | 248 | 19.3 | 33.8 | 0.00 | 0.00 | 0.00 | 41 | 1005.5 |
| 20260902000741 | 21 | 215 | 17.7 | 33.8 | 0.00 | 0.00 | 0.00 | 41 | 1005.4 |
| 20260902000242 | 21 | 232 | 17.7 | 30.6 | 0.00 | 0.00 | 0.00 | 40 | 1005.4 |
| 20260901235741 | 21 | 315 | 16.1 | 30.6 | 0.00 | 0.00 | 0.00 | 40 | 1005.4 |
| 20260901235242 | 21 | 275 | 17.7 | 35.4 | 0.00 | 0.00 | 0.00 | 39 | 1005.5 |
| 20260901234741 | 22 | 275 | 16.1 | 35.4 | 0.00 | 0.00 | 0.00 | 39 | 1005.5 |
| 20260901234241 | 22 | 253 | 14.5 | 30.6 | 0.00 | 0.00 | 0.00 | 37 | 1005.5 |
| 20260901233741 | 22 | 302 | 16.1 | 30.6 | 0.00 | 0.00 | 0.00 | 36 | 1005.5 |
| 20260901233240 | 23 | 250 | 14.5 | 27.4 | 0.00 | 0.00 | 0.00 | 35 | 1005.5 |
| 20260901232741 | 23 | 343 | 16.1 | 27.4 | 0.00 | 0.00 | 0.00 | 34 | 1005.5 |
| 20260901232235 | 23 | 301 | 17.7 | 35.4 | 0.00 | 0.00 | 0.00 | 34 | 1005.6 |
| 20260901231729 | 23 | 306 | 17.7 | 35.4 | 0.00 | 0.00 | 0.00 | 34 | 1005.6 |
| 20260901231223 | 24 | 286 | 17.7 | 30.6 | 0.00 | 0.00 | 0.00 | 34 | 1005.6 |
| 20260901230716 | 23 | 275 | 16.1 | 33.8 | 0.00 | 0.00 | 0.00 | 35 | 1005.6 |
| 20260901230214 | 24 | 307 | 16.1 | 33.8 | 0.00 | 0.00 | 0.00 | 34 | 1005.5 |
| 20260901225712 | 24 | 294 | 17.7 | 30.6 | 0.00 | 0.00 | 0.00 | 35 | 1005.5 |
| 20260901225214 | 23 | 254 | 16.1 | 30.6 | 0.00 | 0.00 | 0.00 | 35 | 1005.6 |
| 20260901224713 | 23 | 295 | 14.5 | 25.7 | 0.00 | 0.00 | 0.00 | 35 | 1005.7 |
| 20260901224213 | 23 | 251 | 14.5 | 25.7 | 0.00 | 0.00 | 0.00 | 35 | 1005.6 |
| 20260901223714 | 23 | 319 | 14.5 | 25.7 | 0.00 | 0.00 | 0.00 | 34 | 1005.6 |
| 20260901223458 | 23 | 295 | 14.5 | 25.7 | 0.00 | 0.00 | 0.00 | 33 | 1005.6 |
| 20260901222712 | 24 | 298 | 12.9 | 24.1 | 0.00 | 0.00 | 0.00 | 33 | 1005.5 |
| 20260901222451 | 24 | 261 | 14.5 | 27.4 | 0.00 | 0.00 | 0.00 | 32 | 1005.5 |
| 20260901221951 | 24 | 306 | 16.1 | 27.4 | 0.00 | 0.00 | 0.00 | 31 | 1005.5 |
| 20260901221458 | 25 | 304 | 12.9 | 25.7 | 0.00 | 0.00 | 0.00 | 30 | 1005.4 |
| 20260901220710 | 25 | 270 | 11.3 | 29.0 | 0.00 | 0.00 | 0.00 | 28 | 1005.4 |
| 20260901220447 | 26 | 311 | 11.3 | 29.0 | 0.00 | 0.00 | 0.00 | 27 | 1005.3 |
| 20260901215708 | 26 | 348 | 12.9 | 24.1 | 0.00 | 0.00 | 0.00 | 26 | 1005.3 |
| 20260901215210 | 26 | 306 | 14.5 | 24.1 | 0.00 | 0.00 | 0.00 | 26 | 1005.3 |
| 20260901214709 | 26 | 294 | 12.9 | 24.1 | 0.00 | 0.00 | 0.00 | 26 | 1005.2 |
| 20260901214218 | 26 | 288 | 9.7 | 22.5 | 0.00 | 0.00 | 0.00 | 26 | 1005.2 |
| 20260901213717 | 27 | 296 | 9.7 | 20.9 | 0.00 | 0.00 | 0.00 | 25 | 1005.3 |
| 20260901213220 | 27 | 344 | 9.7 | 20.9 | 0.00 | 0.00 | 0.00 | 24 | 1005.4 |
| 20260901212719 | 27 | 342 | 8.0 | 19.3 | 0.00 | 0.00 | 0.00 | 25 | 1005.4 |
| 20260901212211 | 27 | 321 | 8.0 | 19.3 | 0.00 | 0.00 | 0.00 | 25 | 1005.4 |
| 20260901211705 | 27 | 325 | 6.4 | 17.7 | 0.00 | 0.00 | 0.00 | 25 | 1005.5 |
| 20260901211158 | 26 | 355 | 8.0 | 17.7 | 0.00 | 0.00 | 0.00 | 26 | 1005.5 |
| 20260901210927 | 27 | 355 | 9.7 | 20.9 | 0.00 | 0.00 | 0.00 | 26 | 1005.6 |
| 20260901210148 | 26 | 329 | 6.4 | 20.9 | 0.00 | 0.00 | 0.00 | 26 | 1005.5 |
| 20260901205642 | 26 | 5 | 4.8 | 14.5 | 0.00 | 0.00 | 0.00 | 27 | 1005.7 |
| 20260901205136 | 26 | 0 | 6.4 | 20.9 | 0.00 | 0.00 | 0.00 | 27 | 1005.8 |
| 20260901204629 | 26 | 265 | 6.4 | 20.9 | 0.00 | 0.00 | 0.00 | 27 | 1005.8 |
| 20260901204135 | 26 | 340 | 6.4 | 19.3 | 0.00 | 0.00 | 0.00 | 27 | 1005.9 |
| 20260901204130 | 26 | 355 | 6.4 | 19.3 | 0.00 | 0.00 | 0.00 | 26 | 1005.8 |
| 20260901203343 | 26 | 355 | 6.4 | 17.7 | 0.00 | 0.00 | 0.00 | 27 | 1005.9 |
| 20260901202604 | 26 | 340 | 8.0 | 24.1 | 0.00 | 0.00 | 0.00 | 27 | 1006.0 |